Flag for Germany Weather past 2 weeks in Jülich, North Rhine-Westphalia, Germany

Now
71 °F

Mild.


Feels Like: 72 °F
Forecast: 54 / 62 °F
Wind: No wind

Location: Noervenich

Current Time: Sep 20, 2014 at 4:48:13 PM

Latest Report: Sep 20, 2014 at 3:00 PM


Visibility: 8 mi

Pressure: 29.93 "Hg

Humidity: 78%

Dew point: 64 °F

Location of JülichLocation

Historic Weather in Jülich — Graph

°F

Jülich temperature yesterday

Maximum temperature yesterday: 75 °F (at 3:00 PM)
Minimum temperature yesterday: 60 °F (at 4:00 AM)
Average temperature yesterday: 66 °F

Past Weeks' High & Low Weather Summary

 TemperatureHumidityPressure
High77 °F (Sep 5, 6:00 PM)98% (Sep 17, 6:00 AM)30.25 "Hg (Sep 17, 6:00 AM)
Low47 °F (Sep 12, 7:00 AM)51% (Sep 5, 6:00 PM)29.81 "Hg (Sep 18, 6:00 PM)
Average62 °F81%30.03 "Hg
* Reported Sep 5 3:00 PM — Sep 20 3:00 PM, Jülich, Weather by CustomWeather, © 2014

Note: Actual official high and low records may vary slightly from our data, if they occured in-between our weather recording intervals... More about our weather records

Advertising

Jülich weather history for previous 24 hours

 ConditionsComfort  
Time TempWeatherWind HumidityBarometerVisibility
3:00 PM
Sep 20
71 °FMild.No wind78%29.93 "Hg7 mi
1:00 PM71 °FMild.1 mph79%29.96 "Hg7 mi
12:00 PM70 °FOvercast.1 mph82%29.96 "Hg9 mi
10:00 AM64 °FOvercast.1 mph95%29.96 "Hg9 mi
9:00 AM62 °FPartly sunny.1 mph96%29.95 "Hg9 mi
7:00 AM59 °FOvercast.2 mph98%29.94 "Hg9 mi
6:00 AM58 °FFog.No wind98%29.93 "Hg12 mi
4:00 AM58 °FPassing clouds.No wind96%29.93 "Hg16 mi
3:00 AM59 °FPassing clouds.No wind97%29.93 "Hg16 mi
2:00 AM61 °FPassing clouds.No wind97%29.93 "Hg19 mi
1:00 AM64 °FPassing clouds.No wind93%29.93 "Hg19 mi
12:00 AM62 °FPassing clouds.N/A96%29.93 "Hg19 mi
10:00 PM
Sep 19
63 °FFog.1 mph98%29.92 "Hg16 mi
9:00 PM65 °FFog.No wind96%29.91 "Hg16 mi
7:00 PM71 °FPartly sunny.1 mph86%29.88 "Hg16 mi
6:00 PM70 °FThunderstorms. Overcast.1 mph87%29.88 "Hg16 mi
4:00 PM65 °FThundershowers. Overcast.3 mph95%29.90 "Hg1 mi
Weather by CustomWeather, © 2014

See weather overviewHow to use our weather pages